www.pogodaiklimat.ru

Погода и климат >> Архив погоды >> Швейцария >> Гуттинген


ПОГОДА в Гуттингене

  • Прогноз погоды в Гуттингене
  • Монитор погоды в Гуттингене

АРХИВ ПОГОДЫ в Гуттингене

Время (UTC), дата Ветер
(напр.,м/с)
 
Видим.   Явления Облачность Т
(С)
Тd
(С)
f
(%)
Тe
(С)
Тes
(С)
Комфортность P
(гПа)
Po
(гПа)
Тmin
(С)
Tmax
(С)
R
(мм)
R24
(мм)
S
(см)
13 16.07 СВ 3
{5}
н/о н/о +24.2 +13.1 50 +26 +26 жарко 1014.8 965.2
14 16.07 СВ 3
{5}
н/о н/о +25.1 +13.9 50 +27 +27 жарко 1014.3 964.9
15 16.07 С 2
{5}
н/о н/о +25.0 +11.5 43 +26 +26 жарко 1014.0 964.6
16 16.07 СВ 2
{4}
н/о н/о +25.3 +10.5 39 +26 +26 жарко 1013.7 964.3
17 16.07 СВ 1
{3}
н/о н/о +25.2 +9.8 38 +26 +26 жарко 1013.5 964.1
18 16.07 ЮВ 2
{5}
н/о н/о +23.6 +11.6 47 +25 +25 комфорт 1013.7 964.0 +25.4
19 16.07 Ю 3
{3}
н/о н/о +18.8 +12.4 66 +20 +20 1014.6 964.1
20 16.07 Ю 3
{4}
н/о н/о +17.7 +12.4 71 +18 +18 1014.9 964.1
21 16.07 ЮЗ 3
{4}
н/о н/о +17.5 +12.1 71 +17 +17 1015.1 964.3
22 16.07 СЗ 1
{6}
н/о н/о +16.9 +13.1 78 +18 +18 1015.5 964.6
23 16.07 ЮВ 2
{2}
н/о н/о +14.8 +13.3 91 +15 +15 1016.0 964.7
00 17.07 Ю 2
{6}
н/о н/о +14.5 +12.9 90 +14 +14 1015.9 964.5
01 17.07 Ю 1
{3}
н/о н/о +14.0 +12.6 91 +14 +14 1015.9 964.4
02 17.07 Ю 2
{2}
н/о н/о +13.4 +12.1 92 +13 +13 1015.8 964.2
03 17.07 ЮЗ 2
{3}
н/о н/о +13.1 +11.9 92 +13 +13 1015.6 964.0
04 17.07 ЮЗ 3
{3}
н/о н/о +13.3 +11.9 91 +12 +12 1015.5 963.9
05 17.07 ЮЗ 2
{3}
н/о н/о +15.1 +12.9 87 +15 +15 1014.8 963.6
06 17.07 С 1
{3}
н/о н/о +17.9 +13.4 75 +19 +19 1014.3 963.6 +13.1
07 17.07 СВ 2
{3}
н/о н/о +19.1 +13.7 71 +21 +21 комфорт 1014.0 963.5
08 17.07 СВ 2
{4}
н/о н/о +20.1 +14.5 70 +23 +23 комфорт 1013.7 963.4
09 17.07 СВ 2
{4}
н/о н/о +21.3 +14.5 65 +24 +24 комфорт 1013.5 963.4
10 17.07 СВ 2
{4}
н/о н/о +23.1 +15.3 61 +27 +27 душно 1012.9 963.2
11 17.07 СВ 3
{4}
н/о н/о +24.3 +15.0 56 +27 +27 жарко 1012.4 962.9
12 17.07 В 2
{5}
н/о н/о +25.0 +14.2 51 +27 +27 жарко 1011.8 962.5
13 17.07 ЮВ 2
{4}
н/о н/о +25.5 +13.8 48 +28 +28 жарко 1011.2 962.0
14 17.07 С 2
{6}
н/о н/о +27.3 +10.2 34 +28 +28 жарко 1010.7 961.8
15 17.07 В 3
{8}
н/о н/о +27.0 +10.7 36 +28 +28 жарко 1010.2 961.3
16 17.07 СЗ 2
{6}
н/о н/о +27.0 +10.6 36 +28 +28 жарко 1009.7 960.8
17 17.07 З 3
{5}
н/о н/о +26.8 +6.0 27 +26 +26 жарко 1009.6 960.7
18 17.07 З 3
{8}
н/о н/о +25.0 +5.5 29 +25 +25 комфорт 1009.9 960.7 +27.5
19 17.07 З 3
{6}
н/о н/о +21.9 +7.0 38 +23 +23 комфорт 1010.8 961.0
20 17.07 З 2
{4}
н/о н/о +18.3 +9.3 56 +19 +19 1011.9 961.4
21 17.07 СЗ 1
{6}
н/о н/о +16.2 +10.2 68 +17 +17 1012.5 961.6
22 17.07 ЮЗ 2
{3}
н/о н/о +16.5 +10.2 66 +17 +17 1012.8 961.9
23 17.07 Ю 2
{3}
н/о н/о +15.8 +10.7 72 +16 +16 1013.0 962.0
00 18.07 Ю 1
{6}
н/о н/о +14.9 +11.0 77 +15 +15 1013.2 962.0
01 18.07 З 1
{2}
н/о н/о +14.6 +11.4 81 +15 +15 1013.1 961.9
02 18.07 ЮЗ 2
{3}
н/о н/о +14.6 +11.9 84 +15 +15 1013.0 961.8
03 18.07 ЮЗ 2
{3}
н/о н/о +13.5 +11.6 88 +13 +13 1013.1 961.7
04 18.07 ЮЗ 2
{3}
н/о н/о +14.0 +11.3 84 +13 +13 1013.0 961.7
05 18.07 ЮЗ 2
{3}
н/о н/о +16.1 +12.5 79 +16 +16 1012.8 961.9
06 18.07 СЗ 1
{3}
н/о н/о +17.7 +12.5 72 +19 +19 1013.0 962.3 +13.2
07 18.07 В 1
{2}
н/о н/о +19.3 +12.6 65 +22 +22 комфорт 1013.1 962.7
08 18.07 СВ 2
{3}
н/о н/о +20.8 +13.6 63 +24 +24 комфорт 1012.9 962.8
09 18.07 В 2
{3}
н/о н/о +22.1 +14.2 61 +25 +25 комфорт 1012.7 962.8
10 18.07 З 3
{6}
н/о н/о +23.7 +10.6 44 +25 +25 комфорт 1012.4 962.8
11 18.07 З 4
{8}
н/о н/о +25.2 +9.4 37 +26 +26 жарко 1012.0 962.7
12 18.07 СЗ 4
{8}
н/о н/о +26.3 +6.9 29 +26 +26 жарко 1011.8 962.7
13 18.07 С 2
{8}
н/о н/о +26.8 +9.1 33 +27 +27 жарко 1011.3 962.3
14 18.07 СВ 3
{6}
н/о н/о +26.0 +9.7 36 +27 +27 жарко 1011.2 962.1
15 18.07 СВ 1
{8}
н/о н/о +26.0 +11.4 40 +27 +27 жарко 1011.1 962.0
16 18.07 В 2
{3}
н/о н/о +25.9 +10.7 38 +27 +27 жарко 1010.8 961.7
17 18.07 С 1
{3}
н/о н/о +26.1 +10.6 38 +27 +27 жарко 1010.9 961.8
18 18.07 ЮЗ 2
{8}
н/о н/о +22.7 +14.1 58 +26 +26 жарко 1011.7 962.0 +26.8
19 18.07 Ю 3
{3}
н/о н/о +20.1 +12.1 60 +22 +22 комфорт 1012.6 962.4
20 18.07 Ю 3
{4}
н/о н/о +19.0 +11.4 61 +20 +20 1013.3 962.9
21 18.07 ЮЗ 4
{5}
н/о н/о +19.9 +11.2 57 +21 +21 комфорт 1013.4 963.1
22 18.07 ЮЗ 4
{6}
н/о н/о +20.3 +10.6 54 +22 +22 комфорт 1013.4 963.2
23 18.07 ЮЗ 5
{7}
н/о н/о +19.8 +10.6 55 +21 +21 комфорт 1013.8 963.5
00 19.07 ЮЗ 2
{7}
н/о н/о +19.5 +11.0 58 +21 +21 комфорт 1014.2 963.8
01 19.07 ЮЗ 2
{4}
н/о н/о +17.0 +12.0 72 +18 +18 1014.9 964.0
02 19.07 ЮЗ 2
{3}
н/о н/о +16.1 +12.6 80 +16 +16 1015.4 964.3
03 19.07 ЮЗ 2
{4}
н/о н/о +16.0 +12.4 79 +16 +16 1015.5 964.4
04 19.07 ЮЗ 1
{3}
н/о н/о +15.3 +13.1 87 +16 +16 1015.7 964.5
05 19.07 ЮЗ 2
{3}
н/о н/о +17.6 +13.3 76 +18 +18 1015.4 964.6
06 19.07 С 1
{4}
н/о н/о +20.5 +13.4 64 +24 +24 комфорт 1015.3 965.0 +15.3
07 19.07 С 1
{2}
н/о н/о +21.3 +14.1 63 +24 +24 комфорт 1015.6 965.4
08 19.07 ЮЗ 2
{6}
н/о н/о +23.5 +13.2 52 +26 +26 жарко 1015.0 965.3
09 19.07 СВ 2
{6}
н/о н/о +24.2 +15.5 58 +27 +27 жарко 1015.1 965.5
10 19.07 С 3
{5}
н/о н/о +24.5 +15.4 57 +27 +27 жарко 1014.9 965.3
11 19.07 СВ 3
{5}
н/о н/о +25.8 +14.5 50 +28 +28 жарко 1014.4 965.1
12 19.07 СВ 2
{6}
н/о н/о +26.4 +13.9 46 +29 +29 жарко 1014.0 964.8
13 19.07 СВ 2
{5}
н/о н/о +26.4 +14.7 49 +29 +29 жарко 1013.7 964.5
14 19.07 З 3
{7}
н/о н/о +27.4 +12.7 40 +29 +29 жарко 1013.3 964.3
15 19.07 З 4
{8}
н/о н/о +27.9 +12.4 38 +29 +29 жарко 1012.9 964.0
16 19.07 СЗ 3
{7}
н/о н/о +27.6 +11.8 37 +29 +29 жарко 1012.7 963.8
17 19.07 СВ 1
{4}
н/о н/о +27.0 +13.3 43 +29 +29 жарко 1012.7 963.7
18 19.07 ЮВ 1
{8}
н/о н/о +25.5 +14.5 51 +28 +28 жарко 1013.0 963.7 +27.9
19 19.07 ЮЗ 2
{3}
н/о н/о +21.4 +15.3 68 +25 +25 комфорт 1013.9 963.8
20 19.07 ЮЗ 3
{3}
н/о н/о +19.9 +13.9 68 +22 +22 комфорт 1014.4 964.1
21 19.07 СЗ 2
{4}
н/о н/о +20.2 +13.2 64 +23 +23 комфорт 1014.7 964.4
22 19.07 ЮЗ 1
{3}
н/о н/о +17.5 +14.1 80 +19 +19 1015.6 964.8
23 19.07 ЮЗ 2
{3}
н/о н/о +17.3 +14.4 83 +18 +18 1015.8 964.9
00 20.07 ЮВ 2
{4}
н/о н/о +16.6 +14.7 89 +17 +17 1015.7 964.7
01 20.07 ЮВ 1
{3}
н/о н/о +15.6 +14.4 93 +16 +16 1015.5 964.3
02 20.07 Ю 2
{3}
н/о н/о +15.6 +14.4 93 +15 +15 1015.3 964.1
03 20.07 Ю 2
{3}
н/о н/о +15.6 +14.3 92 +16 +16 1015.1 964.0
04 20.07 ЮЗ 2
{3}
н/о н/о +15.3 +14.0 92 +15 +15 1015.2 964.0
05 20.07 З 1
{2}
н/о н/о +17.7 +15.5 87 +19 +19 1015.1 964.3
06 20.07 С 1
{3}
н/о н/о +19.7 +15.8 78 +23 +23 комфорт 1015.0 964.6 +15.0
07 20.07 СВ 2
{3}
н/о н/о +20.7 +16.5 77 +25 +25 комфорт 1014.9 964.7
08 20.07 С 2
{3}
н/о н/о +21.8 +16.1 70 +26 +26 душно 1015.0 965.0
09 20.07 СВ 2
{3}
н/о н/о +23.8 +16.9 65 +27 +27 жарко 1014.8 965.1
10 20.07 В 2
{4}
н/о н/о +24.7 +17.1 63 +29 +29 душно 1014.5 965.0
11 20.07 В 2
{4}
н/о н/о +24.6 +17.7 65 +29 +29 душно 1014.3 964.8
12 20.07 СВ 2
{4}
н/о н/о +27.3 +16.9 53 +31 +31 душно 1013.7 964.7
13 20.07 З 2
{6}
н/о н/о +30.3 +15.4 40 +33 +33 душно 1013.0 964.5
14 20.07 З 3
{8}
н/о н/о +30.6 +13.1 34 +32 +32 жарко 1012.5 964.1
15 20.07 З 4
{9}
н/о н/о +29.9 +12.8 35 +31 +31 жарко 1012.8 964.3
16 20.07 ЮЗ 4
{9}
н/о н/о +30.7 +11.5 31 +31 +31 жарко 1012.4 964.0
17 20.07 ЮЗ 3
{9}
н/о н/о +29.7 +12.7 35 +31 +31 жарко 1012.4 963.8
18 20.07 ЮЗ 3
{9}
н/о н/о +26.1 +14.8 50 +29 +29 жарко 1013.3 964.1 +31.1
19 20.07 ЮЗ 3
{4}
н/о н/о +23.8 +14.8 57 +27 +27 жарко 1013.9 964.3
20 20.07 ЮЗ 3
{4}
н/о н/о +23.8 +14.1 55 +26 +26 жарко 1015.2 965.5
21 20.07 ЮЗ 3
{4}
н/о н/о +21.5 +14.0 62 +24 +24 комфорт 1015.8 965.7
22 20.07 ЮЗ 3
{4}
н/о н/о +20.9 +14.2 66 +24 +24 комфорт 1016.5 966.2
23 20.07 ЮЗ 4
{5}
н/о н/о +21.6 +14.1 62 +24 +24 комфорт 1016.4 966.3
00 21.07 СЗ 2
{5}
н/о н/о +20.2 +15.0 72 +23 +23 комфорт 1017.0 966.6
01 21.07 ЮЗ 4
{5}
н/о н/о +21.0 +15.5 71 +25 +25 комфорт 1017.3 967.0
02 21.07 СЗ 3
{7}
н/о н/о +19.3 +17.0 87 +22 +22 комфорт 1019.0 968.3 0.4
03 21.07 СЗ 1
{7}
н/о н/о +18.1 +16.7 92 +20 +20 1020.0 969.1 0.8
04 21.07 ЮЗ 2
{5}
н/о н/о +17.7 +16.8 94 +18 +18 1020.6 969.6 1
05 21.07 Ю 3
{4}
н/о н/о +17.9 +17.1 95 +18 +18 1020.6 969.6 0.2
06 21.07 Ю 1
{7}
н/о н/о +18.7 +17.6 93 +21 +21 комфорт 1021.0 970.1 +17.7 0.1
07 21.07 ЮВ 1
{2}
н/о н/о +19.5 +18.1 92 +23 +23 комфорт 1021.3 970.5
08 21.07 ЮЗ 3
{5}
н/о н/о +19.7 +18.1 90 +23 +23 комфорт 1021.7 971.0
09 21.07 З 3
{5}
н/о н/о +22.0 +17.7 77 +27 +27 душно 1021.6 971.3
10 21.07 З 1
{5}
н/о н/о +22.7 +17.7 73 +28 +28 душно 1021.8 971.6
11 21.07 З 2
{4}
н/о н/о +23.9 +17.7 68 +28 +28 душно 1021.7 971.7
12 21.07 ЮВ 2
{5}
н/о н/о +25.2 +18.9 68 +30 +30 душно 1020.9 971.2
13 21.07 З 2
{6}
н/о н/о +26.1 +17.0 57 +30 +30 душно 1020.3 970.7
14 21.07 З 4
{8}
н/о н/о +27.2 +15.9 50 +30 +30 душно 1019.8 970.5
15 21.07 З 3
{9}
н/о н/о +27.7 +15.6 48 +31 +31 душно 1019.8 970.5
16 21.07 З 3
{8}
н/о н/о +27.8 +14.9 45 +30 +30 жарко 1019.3 970.1
17 21.07 З 2
{7}
н/о н/о +27.6 +14.9 46 +30 +30 жарко 1019.2 970.0
18 21.07 ЮЗ 2
{9}
н/о н/о +24.8 +16.9 61 +28 +28 жарко 1020.3 970.5 +28.0
19 21.07 ЮВ 1
{4}
н/о н/о +21.7 +17.9 79 +26 +26 душно 1021.5 971.1
20 21.07 ЮВ 1
{2}
н/о н/о +19.5 +17.7 89 +23 +23 комфорт 1022.3 971.5
21 21.07 Ю 2
{4}
н/о н/о +19.0 +17.3 90 +21 +21 комфорт 1022.4 971.5
22 21.07 ЮЗ 1
{2}
н/о н/о +18.4 +17.0 92 +20 +20 1023.0 972.0
23 21.07 З 2
{3}
н/о н/о +18.3 +17.0 92 +20 +20 1023.4 972.3
00 22.07 Ю 1
{4}
н/о н/о +17.8 +17.0 95 +19 +19 1023.5 972.3
01 22.07 ЮЗ 2
{3}
н/о н/о +18.0 +17.4 96 +19 +19 1023.1 972.0
02 22.07 ЮЗ 1
{3}
н/о н/о +17.4 +16.8 96 +19 +19 1023.3 972.1
03 22.07 ЮЗ 2
{3}
н/о н/о +17.3 +16.8 97 +18 +18 1023.6 972.3
04 22.07 Ю 2
{3}
н/о н/о +17.2 +16.7 97 +17 +17 1023.9 972.6
05 22.07 Ю 2
{2}
н/о н/о +18.1 +17.5 96 +19 +19 1023.9 972.8
06 22.07 СВ 1
{3}
н/о н/о +20.5 +18.4 88 +26 +26 душно 1023.8 973.1 +17.1
07 22.07 СВ 2
{3}
н/о н/о +21.4 +18.2 82 +26 +26 душно 1023.8 973.3
08 22.07 СВ 2
{3}
н/о н/о +22.8 +18.9 79 +29 +29 очень
душно
1023.7 973.4
09 22.07 СВ 2
{3}
н/о н/о +24.1 +18.9 73 +29 +29 душно 1023.5 973.4
10 22.07 СВ 2
{4}
н/о н/о +25.0 +19.3 71 +30 +30 душно 1023.2 973.3
11 22.07 В 1
{4}
н/о н/о +25.3 +18.5 66 +30 +30 душно 1023.0 973.2
12 22.07 СВ 2
{4}
н/о н/о +27.1 +16.2 51 +30 +30 душно 1022.3 972.8
13 22.07 СВ 3
{4}
н/о н/о +28.4 +15.9 47 +32 +32 душно 1021.7 972.5
14 22.07 СВ 2
{4}
н/о н/о +28.9 +16.4 47 +32 +32 душно 1021.1 972.0
15 22.07 СВ 2
{4}
н/о н/о +28.8 +16.2 46 +32 +32 душно 1020.7 971.6
16 22.07 ЮВ 2
{4}
н/о н/о +28.9 +15.3 44 +32 +32 душно 1020.3 971.2
17 22.07 В 2
{4}
н/о н/о +28.0 +15.1 45 +31 +31 душно 1020.3 971.1
18 22.07 Ю 2
{4}
н/о н/о +25.0 +19.1 70 +30 +30 душно 1020.8 971.0 +28.9
19 22.07 Ю 2
{3}
н/о н/о +22.2 +17.0 72 +27 +27 душно 1021.4 971.1
20 22.07 Ю 2
{3}
н/о н/о +20.9 +15.0 69 +25 +25 комфорт 1021.8 971.3
21 22.07 Ю 2
{3}
н/о н/о +19.7 +15.0 74 +22 +22 комфорт 1022.1 971.3
22 22.07 ЮЗ 1
{2}
н/о н/о +18.6 +14.8 79 +20 +20 1022.5 971.5
23 22.07 ЮВ 2
{3}
н/о н/о +17.9 +16.7 93 +18 +18 1022.6 971.5
00 23.07 ЮВ 2
{3}
н/о н/о +17.9 +16.9 94 +19 +19 1022.4 971.3
01 23.07 Ю 1
{2}
н/о н/о +16.7 +15.9 95 +18 +18 1022.3 971.0
02 23.07 ЮВ 2
{3}
н/о н/о +16.5 +15.8 96 +17 +17 1022.2 970.9
03 23.07 Ю 2
{3}
н/о н/о +16.3 +15.4 94 +17 +17 1022.2 970.8
04 23.07 ЮВ 2
{2}
н/о н/о +15.8 +15.2 96 +16 +16 1022.3 970.8
05 23.07 ЮВ 1
{2}
н/о н/о +18.5 +16.9 90 +20 +20 1021.7 970.7
06 23.07 В 2
{3}
н/о н/о +20.9 +16.2 74 +25 +25 комфорт 1021.2 970.7 +15.7
07 23.07 В 2
{4}
н/о н/о +22.0 +14.8 64 +25 +25 комфорт 1020.9 970.6
08 23.07 СВ 2
{3}
н/о н/о +23.4 +15.3 60 +28 +28 душно 1020.4 970.4
09 23.07 СВ 2
{4}
н/о н/о +25.3 +16.7 59 +29 +29 душно 1019.9 970.2
10 23.07 В 2
{4}
н/о н/о +26.4 +17.1 57 +30 +30 душно 1019.4 969.9
11 23.07 СВ 2
{4}
н/о н/о +28.7 +16.8 49 +32 +32 душно 1018.6 969.6
12 23.07 СВ 2
{5}
н/о н/о +30.6 +17.0 44 +34 +34 очень
душно
1017.7 969.0

 

Местоположение метеостанции Гуттинген (Швейцария): широта 47.60 долгота 9.28 высота над уровнем моря 440 м.

В архиве по умолчанию представлена погода в Гуттингене за последнюю неделю. Архивные данные за месяц целиком и за предыдущие месяцы, начиная с января 2011 года, Вы можете получить, выбрав интересующий диапазон дат из раскрывающегося списка и нажав кнопку "Ввод!".


*Определитесь, кто Вы:
робот инопланетянин человек

Внимание! Время в таблицах - всемирное. Для получения местного времени необходимо прибавить поправку, которая равна 1 ч.

Смотрите также архив погоды в соседних городах и на ближайших метеорологических станциях:

Погода в Констанции (Германия) (12 км)
Погода в Бишофсцелле (Швейцария) (14 км)
Погода в Хайденхаусе (Швейцария) (20 км)
Погода в Санкт-Галлене (Швейцария) (21 км)
Погода в Санкт-Галлен-Альтенрайне (Швейцария) (24 км)
Погода в Тениконе (Швейцария) (32 км)
Погода в Хёрнли (Швейцария) (36 км)
Погода в Брегенце (Австрия) (37 км)
Погода в Эбнат-Каппеле (Швейцария) (38 км)
Погода в Дорнбирне (Австрия) (39 км)

Пояснения к столбцам:

Ветер - указаны скорость ветра в м/с - средняя за 10 мин, порывы в срок и между сроками (в фигурных скобках) и направление, откуда дует ветер: С - северный, СВ - северо-восточный, В - восточный, ЮВ - юго-восточный, Ю - южный, ЮЗ - юго-западный, З - западный, СЗ - северо-западный.
Видимость - горизонтальная дальность видимости в метрах или километрах. При видимости от 1 до 10 км при отсутствии осадков обычно наблюдается дымка, при ухудшении видимости до 1 км и менее - туман. В сухую погоду видимость может ухудшаться дымом, пылью или мглою.
Явления - указаны атмосферные явления, наблюдавшиеся в срок или в последний час перед сроком; фигурными скобками обозначены явления, наблюдавшиеся между сроками (за 1-3 часа до срока); квадратными скобками обозначены град или гололедные отложения с указанием их диаметра в мм.
Облачность - указаны через наклонную черту общая и нижняя облачность в баллах и высота нижней границы облаков в метрах; квадратными скобками обозначены формы облаков: Ci - перистые, Cs - перисто-слоистые, Cc - перисто-кучевые, Ac - высококучевые, As - высокослоистые, Sc - слоисто-кучевые, Ns - слоисто-дождевые, Cu - кучевые, Cb - кучево-дождевые. Подробнее классификацию облаков см. в Атласе облаков (PDF).
T - Температура воздуха - температура, измеренная на высоте 2 м над землей.
Td - Температура точки росы - температура, при понижении до которой содержащийся в воздухе водяной пар достигнет насыщения.
f - Относительная влажность воздуха - влажноcть воздуха, измеренная на высоте 2 м над землей.
Te - Эффективная температура - температура, которую ощущает одетый по сезону человек в тени. Характеристика душности погоды. При расчете учитывается влияние влажности воздуха и скорости ветра на теплоощущения человека.
Tes - Эффективная температура на солнце - температура, которую ощущает человек, с поправкой на солнечный нагрев. Характеристика знойности погоды. Зависит от высоты солнца над горизонтом, облачности и скорости ветра. Ночью, в пасмурную погоду, а также при ветре 12 м/с и более поправка равна нулю.
P - Атмосферное давление - приведенное к уровню моря атмосферное давление.
Po - Атмосферное давление - измеренное на уровне метеостанции атмосферное давление.
Tmin - Минимальная температура - минимум температуры воздуха на высоте 2 м над землей.
Tmax - Максимальная температура - максимум температуры воздуха на высоте 2 м над землей.
R - Количество осадков - Количество выпавших осадков за период времени, мм. При наведении курсора мыши на число - период времени, за который выпало указанное количество осадков.
R24 - Количество осадков - Количество выпавших осадков за 24 часа, мм.
S - Снежный покров - Высота снежного покрова, см. При наведении курсора мыши на число - состояние снежного покрова и степень покрытия местности в баллах.